Find Early Bird

NORAD ID: 1317 Int'l Des: 1965-028 Owner: INTEL Country: I-INT operational
HEOCIRCULAR

Current View

Loading 3D Globe...

About Early Bird

Early Bird (NORAD 1317) is a satellite by INTEL of I-INT. It operates in HEO, CIRCULAR orbit

Upcoming Passes

Passes for default location (London). Set your location on the main map for personalized predictions.

Altitude History

Loading altitude history...

Two-Line Element Set

1 1317U 65028A 26194.51592713 .00000067 00000-0 00000+0 0 9990
2 1317 7.2183 63.4562 0006852 141.4783 140.2675 1.00193280127436
Epoch: Jul 13, 2026 • Age: 27 hours

Current Status

Altitude 35837.5 km
Apogee / Perigee N/A
Velocity 3.07 km/s
Sub-Earth Point -4.56°S, 132°W
Type other

Most Searched